Location: Baix
(44.7118°N, 4.7648°E)
Time: 14:43:36
(UTC+00:00)

Lacrosse 4 Rocket - Pass Details

Date: 07 August 2020
Orbit: 544 x 615 km, 68.0° (Epoch: 22 September)

Event Time Altitude Azimuth Distance (km) Brightness Sun altitude
Exits shadow 01:49:16 - 297° (WNW) 1,997 4.1 -22.9°
Reaches altitude 10° 01:50:06 10° 308° (NW) 1,889 4.1 -22.8°
Maximum altitude 01:51:07 11° 322° (NW) 1,840 4.2 -22.7°
Drops below altitude 10° 01:52:07 10° 336° (NNW) 1,881 4.4 -22.6°
Sets 01:56:11 0° 15° (NNE) 2,762 6.1 -22.2°
